Terminal Aerodrome Forecast
Issued by NWS Springfield, MO

Home | Current Version | Previous Version | Text Only | Print | Product List | Glossary On
Versions: 1 2 3 4 5 6 7 8 9 10 11 12 13 14 15 16 17 18 19 20 21 22
000
FTUS43 KSGF 191700
TAFSGF
TAF
KSGF 191721Z 1918/2018 12005KT P6SM OVC008
     FM200800 VRB03KT 4SM BR OVC004
      TEMPO 2010/2014 1SM BR OVC003
     FM201600 18005KT P6SM BKN008=

USA.gov is the U.S. government's official web portal to all federal, state and local government web resources and services.